Regional Weather Roundup
Issued by NWS

Home | Current Version | Previous Version | Text Only | Print | Product List | Glossary On
Versions: 1 2 3 4 5 6 7 8 9 10 11 12 13 14 15 16 17 18 19 20 21 22 23 24 25 26 27 28 29 30 31 32 33 34 35 36 37 38 39 40 41 42 43 44 45 46 47 48 49 50
000
ASUS43 KLMK 010302
RWRKY
KENTUCKY REGIONAL WEATHER ROUNDUP
NATIONAL WEATHER SERVICE LOUISVILLE KY
1100 PM EDT THU JUL 31 2014

NOTE "FAIR" INDICATES FEW OR NO CLOUDS BELOW 12,000 FEET
WITH NO SIGNIFICANT WEATHER AND/OR OBSTRUCTIONS TO VISIBILITY.

KYZ001>023-026-027-061>063-070>075-010400-
WESTERN AND SOUTH CENTRAL KENTUCKY

CITY           SKY/WX    TMP DP  RH WIND       PRES   REMARKS
PADUCAH        PTCLDY    66  62  87 CALM      30.07R
HENDERSON      PTCLDY    66  61  82 CALM      30.06
OWENSBORO      PTCLDY    70  63  78 CALM      30.07R
HOPKINSVILLE   PTCLDY    73  61  67 W6        30.07R
BOWLING GREEN  PTCLDY    73  59  61 CALM      30.08R
GLASGOW        CLOUDY    68  60  75 CALM      30.09R
$$

KYZ024-025-028>034-038-045-046-053-010400-
NORTH CENTRAL KENTUCKY

CITY           SKY/WX    TMP DP  RH WIND       PRES   REMARKS
LOUISVILLE/SDF PTCLDY    76  58  53 CALM      30.08R
LOUISVILLE/LOU CLEAR     74  57  55 CALM      30.09R
FORT KNOX      PTCLDY    64  61  89 N2        30.08R
$$

KYZ035>037-039>044-047>052-055>060-089>105-010400-
NORTHEAST KENTUCKY

CITY           SKY/WX    TMP DP  RH WIND       PRES   REMARKS
LEXINGTON      CLEAR     70  61  73 CALM      30.11R
COVINGTON      NOT AVBL
FRANKFORT      CLEAR     66  60  81 CALM      30.09R
$$

KYZ054-064>069-076>088-106>120-010400-
SOUTHEAST KENTUCKY

CITY           SKY/WX    TMP DP  RH WIND       PRES   REMARKS
JACKSON        MOCLDY    72  59  63 CALM      30.12S
LONDON         MOCLDY    70  61  73 CALM      30.12R
SOMERSET       CLEAR     64  63  94 CALM      30.12R
MIDDLESBORO    MOCLDY    67  62  83 CALM      30.13R
MONTICELLO     PTCLDY    62  61  97 CALM      30.12R
$$




USA.gov is the U.S. government's official web portal to all federal, state and local government web resources and services.